Regional Weather Roundup
Issued by NWS

Home | Current Version | Previous Version | Graphics & Text | Print | Product List | Glossary On
Versions: 1 2 3 4 5 6 7 8 9 10 11 12 13 14 15 16 17 18 19 20 21 22 23 24 25 26 27 28 29 30 31 32 33 34 35 36 37 38 39 40 41 42 43 44 45 46 47 48 49 50
000
ASUS43 KMKX 251621
RWRWI

WISCONSIN REGIONAL WEATHER ROUNDUP
NATIONAL WEATHER SERVICE MILWAUKEE/SULLIVAN WI
1100 AM CDT SUN JUN 25 2017

NOTE: "FAIR" INDICATES FEW OR NO CLOUDS BELOW 12,000 FEET WITH NO
SIGNIFICANT WEATHER AND/OR OBSTRUCTIONS TO VISIBILITY.

WIZ001-002-006>008-014>016-023>028-251700-
NORTHWEST WISCONSIN

CITY           SKY/WX    TMP DP  RH WIND       PRES   REMARKS
SUPERIOR ARPT  NOT AVBL
ASHLAND        CLOUDY    57  54  89 CALM      30.04S
HAYWARD        LGT RAIN  56  52  86 CALM      30.05S
SIREN          LGT RAIN  55  52  92 NW14      30.09R
CUMBERLAND     CLOUDY    54  52  94 W13       30.08S FOG
RICE LAKE      CLOUDY    59  51  75 SW12      30.09S
CHETEK         CLOUDY    59  52  78 W7        30.08S
LADYSMITH      CLOUDY    58  52  81 W7        30.08S
EAU CLAIRE     CLOUDY    60  50  69 W14       30.09R
MENOMONIE      CLOUDY    59  51  74 W12G17    30.11R
NEW RICHMOND   CLOUDY    55  53  92 W9        30.12S
OSCEOLA        CLOUDY    57  51  80 NW16G23   30.14S
$$

WIZ003>005-009-010-017-018-251700-
NORTH CENTRAL WISCONSIN

CITY           SKY/WX    TMP DP  RH WIND       PRES   REMARKS
MANITOWISH WTR CLOUDY    58  53  85 W6        30.02F
ARBOR VITAE    CLOUDY    59  53  78 NW7       30.02F
WOODRUFF       CLOUDY    59  53  78 NW7       30.02F
RHINELANDER    CLOUDY    58  52  80 W7        30.04R
EAGLE RIVER    PTSUNNY   60  49  67 W6        30.02S
LAND O LAKES   PTSUNNY   60  50  69 W3        30.04S
PHILLIPS       RAIN      55  53  94 W5        30.04S
TOMAHAWK       NOT AVBL
MEDFORD        CLOUDY    55  50  85 W12       30.07R
MERRILL        CLOUDY    57  52  83 NW8       30.06R
$$

WIZ029-030-035-036-043>047-251700-
CENTRAL WISCONSIN

CITY           SKY/WX    TMP DP  RH WIND       PRES   REMARKS
WAUSAU         CLOUDY    58  50  75 NW9       30.04S
MOSINEE        CLOUDY    57  52  82 W13       30.07S
MARSHFIELD     CLOUDY    57  49  74 W12       30.07S
STEVENS POINT  CLOUDY    55  49  81 W8        30.08R
WAUPACA        MOSUNNY   65  53  64 W17       30.05R
WAUTOMA        CLOUDY    60  50  69 W13G23    30.08R
WISC RAPIDS    CLOUDY    57  50  77 NW10      30.10R
CAMP DOUGLAS   CLOUDY    57  50  77 W12       30.10R
$$

WIZ011>013-019>022-031-037>040-048>050-251700-
NORTHEAST WISCONSIN

CITY           SKY/WX    TMP DP  RH WIND       PRES   REMARKS
ANTIGO         CLOUDY    58  51  77 W12       30.04S
SHAWANO        MOSUNNY   66  53  63 NW5       30.01S
OCONTO         PTSUNNY   64  52  64 NW6       29.99F
STURGEON BAY     N/A     61  52  72 W10         N/A
GREEN BAY      CLOUDY    66  53  63 NW10      30.02R
MANITOWOC      PTSUNNY   64  50  60 NW13G20   30.02R
APPLETON       PTSUNNY   63  48  59 W14       30.02S
CLINTONVILLE   CLOUDY    64  50  59 NW10      30.03S
OSHKOSH        MOSUNNY   64  51  62 W16       30.03S
$$

WIZ032>034-041-042-053>061-251700-
SOUTHWEST WISCONSIN

CITY           SKY/WX    TMP DP  RH WIND       PRES   REMARKS
LA CROSSE      CLOUDY    65  52  62 W6        30.12S
SPARTA         CLOUDY    58  51  78 W9        30.12R
VIROQUA        CLOUDY    55  52  92 W7        30.13S
BOSCOBEL       CLOUDY    62  49  62 W5        30.13S
PRAIRIE DU CHI CLOUDY    59  47  64 W14G20    30.14S
PLATTEVILLE    PTSUNNY   62  51  65 W14       30.14S
$$

WIZ056-057-062-063-064-067-068-251700-
SOUTH CENTRAL WISCONSIN

CITY           SKY/WX    TMP DP  RH WIND       PRES   REMARKS
REEDSBURG      CLOUDY    58  49  72 W9        30.11R
BARABOO/DELLS  CLOUDY    59  48  67 W10       30.10S
LONE ROCK      CLOUDY    61  48  62 NW15      30.12S
MINERAL POINT  CLOUDY    63  52  67 W9G18     30.13R
MADISON        PTSUNNY   61  50  67 W13G18    30.09S
MIDDLETON      CLOUDY    62  51  67 W15       30.11R
WATERTOWN      PTSUNNY   64  51  64 W14       30.07F
MONROE         PTSUNNY   63  48  59 W17       30.12S
JANESVILLE     PTSUNNY   66  52  59 W17       30.10S
$$

WIZ051-052-058>065-066-070>072-251700-
SOUTHEAST WISCONSIN

CITY           SKY/WX    TMP DP  RH WIND       PRES   REMARKS
MILWAUKEE      PTSUNNY   68  49  50 W18       30.06S
WAUKESHA       MOSUNNY   61  48  63 W16G23    30.08S
MILWAUKEE/TIMM PTSUNNY   64  45  48 W20G25    30.06S
RACINE         MOSUNNY   67  49  52 W14G28    30.08S
KENOSHA        MOSUNNY   66  49  54 W16G26    30.08S
FOND DU LAC    MOSUNNY   65  50  58 W15G21    30.04S
SHEBOYGAN      PTSUNNY   65  53  65 NW15G22   30.02R
WEST BEND      PTSUNNY   63  50  63 W14G22    30.05S
JUNEAU         MOSUNNY   61  50  68 W8G17     30.08S
$$

LSZ147-162-251700-
LAKE SUPERIOR

STATION/POSITION TIME  TEMP    WIND        PRES    WAVE
                       AIR SEA DIR/SP/G            HT/PER
                 (UTC) (F)     (DEG/KT/KT) (MB)    (FT/S)
W MID LAKE BUOY  1550   45 39  320/  4/  4 1017.1R   0
DEVILS ISLAND    1600   53     220/  5/  6 1017.1R
SAXON HARBOR     1540   57     330/  5/  6 1016.6S
$$

LMZ867-665-643>646-251700-
LAKE MICHIGAN

STATION/POSITION TIME  TEMP    WIND        PRES    WAVE
                       AIR SEA DIR/SP/G            HT/PER
                 (UTC) (F)     (DEG/KT/KT) (MB)    (FT/S)
CHAMBERS ISLAND  1540   61     280/  3/  7 1014.9S
S GREEN BAY BUOY 1600   61     280/  8/ 10 1015.6
N MID LAKE BUOY  1550   56 57  320/  4/  6 1015.9R   1/ 3
NORTHPORT PIER   1540   59     310/  7/ 12 1014.9S
KEWAUNEE LAKESHO 1554   61     320/  7/ 12 1015.5R
SHEBOYGAN LAKESH 1600   63     290/ 16/ 20 1016.3R
PORT WASHINGTON  1530   67     300/  8/ 17 1017.6S
ATWATER BUOY     1509   63 58  270/ 14/ 17 1017.7R
MILWAUKEE LAKESH 1600   64     280/ 13/ 16   N/A
S MID LAKE BUOY  1550   60 61  280/ 16/ 19 1018.0S   3/ 5
KENOSHA   LAKESH 1600   65     290/ 17/ 23 1018.3
$$

TC  - TEMPERATURE IN CELSIUS
VSB - VISIBILITY IN STATUTE MILES
WCI - WIND CHILL INDEX
HX  - HEAT INDEX




USA.gov is the U.S. government's official web portal to all federal, state and local government web resources and services.